Location: Ernez
(36.4595°N, 29.8755°E)
Time: 01:26:20
(UTC+00:00)

Timation 1 Rocket - Pass Details

Date: 13 November 2025
Orbit: 898 x 905 km, 70.0° (Epoch: 07 December)

Event Time Altitude Azimuth Distance (km) Brightness Sun altitude
Rises 16:40:07 0° 340° (NNW) 3,523 7.6 -21.6°
Reaches altitude 10° 16:42:40 10° 344° (NNW) 2,580 6.8 -22.1°
Maximum altitude 16:48:33 60° 64° (ENE) 1,021 4.3 -23.3°
Enters shadow 16:49:55 48° 114° (ESE) 1,160 4.5 -23.5°
